Hourly Data Report for January 01, 2003

SHERBROOKE A
QUEBEC

45°26'00.000" N
71°41'00.000" W
241.40 m
7028124
71610
YSC

Download Data

Hourly Data (January 2003)
Hourly Data Report for January 1, 2003
TIME
LST
Temp Definition
°C
Dew Point Definition
°C
Rel Hum Definition
%
Precip. Amount Definition
mm

Wind Dir Definition
10's deg

Wind Spd Definition
km/h
Visibility Definition
km
Stn Press Definition
kPa
Hmdx Definition


Wind Chill Definition


Weather Definition


00:00 2.4 0.7 89   26 7 15.0 98.03      
01:00 2.3 0.6 89   23 6 15.0 98.07      
02:00 2.5 0.3 85   25 13 9.7 98.17     Rain
03:00 2.0 -0.3 85   26 17 8.0 98.25     Rain
04:00 1.3 -2.0 79   26 17 15.0 98.29      
05:00 0.9 -3.6 72   28 22 15.0 98.42     Snow
06:00 0.2 -4.1 73   28 20 15.0 98.52     Snow
07:00 -0.5 -6.6 63   27 28 15.0 98.65   -7  
08:00 -1.1 -7.0 64   28 20 24.1 98.75   -7 Mostly Cloudy
09:00 -1.8 -7.1 67   27 11 24.1 98.85   -6 Mostly Cloudy
10:00 -1.5 -7.9 62   30 13 24.1 98.88   -6 Mostly Cloudy
11:00 -1.9 -9.7 55   30 19 24.1 98.84   -7 Mostly Cloudy
12:00 -1.9 -9.9 54   32 15 24.1 98.87   -7 Cloudy
13:00 -2.0 -9.4 57   30 15 24.1 98.83   -7 Cloudy
14:00 -2.1 -8.6 61   30 9 19.3 98.90   -6 Snow
15:00 -3.1 -9.0 64   34 11 24.1 98.94   -7 Cloudy
16:00 -4.5 -10.4 63   32 7 24.1 98.97   -8 Cloudy
17:00 -5.7 -10.4 69   32 13 24.1 98.99   -11 Cloudy
18:00 -7.5 -12.0 70   33 13 15.0 99.04   -13  
19:00 -9.1 -13.5 70   33 13 15.0 99.04   -15  
20:00 -9.5 -13.9 70   36 7 15.0 99.09   -13  
21:00 -9.7 -14.4 69   1 9 15.0 99.07   -15  
22:00 -10.0 -15.4 65   36 9 15.0 99.02   -15  
23:00 -10.2 -15.8 63   3 17 15.0 98.96   -17  

Notes on Data Quality.

Legend

  • E = Estimated
  • M = Missing
  • NA = Not Available*
  • [empty] = Indicates an unobserved value
Date modified: